Time,TemperatureF,DewpointF,PressureIn,WindDirection,WindDirectionDegrees,WindSpeedMPH,WindSpeedGustMPH,Humidity,HourlyPrecipIn,Conditions,Clouds,dailyrainin,SoftwareType,DateUTC
2013-05-02 00:13:00,55.6,40.1,29.72,ESE,103,0.0,0.0,56,0.00,,,0.00,Wunderground v.1.15,2013-05-02 07:13:00,
2013-05-02 00:21:00,55.6,40.6,29.72,East,90,0.0,0.0,57,0.00,,,0.00,Wunderground v.1.15,2013-05-02 07:21:00,
2013-05-02 00:35:00,55.6,39.7,29.73,SSE,155,1.0,1.0,55,0.00,,,0.00,Wunderground v.1.15,2013-05-02 07:35:00,
2013-05-02 00:41:00,55.6,40.1,29.73,NNW,339,1.0,3.0,56,0.00,,,0.00,Wunderground v.1.15,2013-05-02 07:41:00,
2013-05-02 00:49:00,55.0,39.6,29.73,WNW,295,0.0,2.0,56,0.00,,,0.00,Wunderground v.1.15,2013-05-02 07:49:00,
2013-05-02 00:55:00,54.8,39.4,29.73,NW,318,1.0,3.0,56,0.00,,,0.00,Wunderground v.1.15,2013-05-02 07:55:00,
2013-05-02 01:01:00,54.4,39.5,29.73,WSW,241,1.0,3.0,57,0.00,,,0.00,Wunderground v.1.15,2013-05-02 08:01:00,
2013-05-02 01:07:00,54.1,38.7,29.73,WSW,258,1.0,1.0,56,0.00,,,0.00,Wunderground v.1.15,2013-05-02 08:07:00,
2013-05-02 01:13:00,54.2,39.3,29.73,NE,35,1.0,1.0,57,0.00,,,0.00,Wunderground v.1.15,2013-05-02 08:13:00,
2013-05-02 01:19:00,54.2,39.7,29.73,NE,35,0.0,1.0,58,0.00,,,0.00,Wunderground v.1.15,2013-05-02 08:19:00,
2013-05-02 01:25:00,54.2,37.4,29.73,NNW,340,1.0,2.0,53,0.00,,,0.00,Wunderground v.1.15,2013-05-02 08:25:00,
2013-05-02 01:31:00,54.2,38.4,29.73,SW,227,1.0,3.0,55,0.00,,,0.00,Wunderground v.1.15,2013-05-02 08:31:00,
2013-05-02 01:37:00,53.9,39.0,29.73,SSW,204,0.0,1.0,57,0.00,,,0.00,Wunderground v.1.15,2013-05-02 08:37:00,
2013-05-02 01:43:00,53.6,38.3,29.73,NE,55,1.0,1.0,56,0.00,,,0.00,Wunderground v.1.15,2013-05-02 08:43:00,
2013-05-02 01:48:00,53.5,38.6,29.73,SSE,164,1.0,1.0,57,0.00,,,0.00,Wunderground v.1.15,2013-05-02 08:48:00,
2013-05-02 01:55:00,53.3,38.4,29.73,SSE,164,0.0,0.0,57,0.00,,,0.00,Wunderground v.1.15,2013-05-02 08:55:00,
2013-05-02 02:01:00,52.9,38.5,29.73,SSW,196,0.0,2.0,58,0.00,,,0.00,Wunderground v.1.15,2013-05-02 09:01:00,
2013-05-02 02:07:00,52.6,37.3,29.74,ESE,102,1.0,1.0,56,0.00,,,0.00,Wunderground v.1.15,2013-05-02 09:07:00,
2013-05-02 02:13:00,52.3,38.0,29.73,NNE,32,0.0,0.0,58,0.00,,,0.00,Wunderground v.1.15,2013-05-02 09:13:00,
2013-05-02 02:19:00,52.2,37.9,29.74,SSW,200,0.0,4.0,58,0.00,,,0.00,Wunderground v.1.15,2013-05-02 09:19:00,
2013-05-02 02:25:00,51.9,38.0,29.74,NE,47,1.0,2.0,59,0.00,,,0.00,Wunderground v.1.15,2013-05-02 09:25:00,
2013-05-02 02:31:00,51.6,38.2,29.74,NE,47,0.0,2.0,60,0.00,,,0.00,Wunderground v.1.15,2013-05-02 09:31:00,
2013-05-02 02:37:00,51.1,38.5,29.74,SW,224,0.0,3.0,62,0.00,,,0.00,Wunderground v.1.15,2013-05-02 09:37:00,
2013-05-02 02:43:00,50.8,38.2,29.74,SW,234,0.0,1.0,62,0.00,,,0.00,Wunderground v.1.15,2013-05-02 09:43:00,
2013-05-02 02:49:00,50.4,38.7,29.74,WSW,253,0.0,1.0,64,0.00,,,0.00,Wunderground v.1.15,2013-05-02 09:49:00,
2013-05-02 02:55:00,49.9,38.2,29.74,WSW,253,0.0,0.0,64,0.00,,,0.00,Wunderground v.1.15,2013-05-02 09:55:00,
2013-05-02 03:00:00,49.4,38.9,29.74,WSW,253,0.0,0.0,67,0.00,,,0.00,Wunderground v.1.15,2013-05-02 10:00:00,
2013-05-02 03:06:00,48.8,38.3,29.74,WNW,287,1.0,2.0,67,0.00,,,0.00,Wunderground v.1.15,2013-05-02 10:06:00,
2013-05-02 03:13:00,48.5,38.4,29.75,SW,222,1.0,1.0,68,0.00,,,0.00,Wunderground v.1.15,2013-05-02 10:13:00,
2013-05-02 03:19:00,48.5,38.0,29.75,SW,222,0.0,1.0,67,0.00,,,0.00,Wunderground v.1.15,2013-05-02 10:19:00,
2013-05-02 03:25:00,48.5,38.4,29.75,SW,218,0.0,0.0,68,0.00,,,0.00,Wunderground v.1.15,2013-05-02 10:25:00,
2013-05-02 03:31:00,48.2,38.5,29.75,SW,218,0.0,0.0,69,0.00,,,0.00,Wunderground v.1.15,2013-05-02 10:31:00,
2013-05-02 03:37:00,47.9,38.6,29.75,SSW,209,0.0,0.0,70,0.00,,,0.00,Wunderground v.1.15,2013-05-02 10:37:00,
2013-05-02 03:43:00,47.6,38.3,29.75,SSW,207,0.0,0.0,70,0.00,,,0.00,Wunderground v.1.15,2013-05-02 10:43:00,
2013-05-02 03:49:00,47.3,38.0,29.75,NNW,346,1.0,3.0,70,0.00,,,0.00,Wunderground v.1.15,2013-05-02 10:49:00,
2013-05-02 03:55:00,47.0,38.1,29.75,SW,229,1.0,1.0,71,0.00,,,0.00,Wunderground v.1.15,2013-05-02 10:55:00,
2013-05-02 04:01:00,46.8,37.9,29.75,SW,230,1.0,2.0,71,0.00,,,0.00,Wunderground v.1.15,2013-05-02 11:01:00,
2013-05-02 04:07:00,46.5,38.0,29.75,NNW,341,0.0,0.0,72,0.00,,,0.00,Wunderground v.1.15,2013-05-02 11:07:00,
2013-05-02 04:13:00,46.5,38.0,29.75,NNW,328,1.0,2.0,72,0.00,,,0.00,Wunderground v.1.15,2013-05-02 11:13:00,
2013-05-02 04:19:00,46.2,37.7,29.75,NNW,346,1.0,2.0,72,0.00,,,0.00,Wunderground v.1.15,2013-05-02 11:19:00,
2013-05-02 04:25:00,46.1,37.9,29.75,WSW,251,0.0,1.0,73,0.00,,,0.00,Wunderground v.1.15,2013-05-02 11:25:00,
2013-05-02 04:31:00,46.0,37.8,29.75,North,9,0.0,1.0,73,0.00,,,0.00,Wunderground v.1.15,2013-05-02 11:31:00,
2013-05-02 04:37:00,45.8,38.0,29.75,WSW,241,0.0,1.0,74,0.00,,,0.00,Wunderground v.1.15,2013-05-02 11:37:00,
2013-05-02 04:43:00,45.7,37.9,29.75,NNE,30,0.0,0.0,74,0.00,,,0.00,Wunderground v.1.15,2013-05-02 11:43:00,
2013-05-02 04:49:00,45.8,38.0,29.75,NNE,30,0.0,0.0,74,0.00,,,0.00,Wunderground v.1.15,2013-05-02 11:49:00,
2013-05-02 04:55:00,45.8,38.3,29.75,WSW,248,1.0,1.0,75,0.00,,,0.00,Wunderground v.1.15,2013-05-02 11:55:00,
2013-05-02 05:01:00,45.7,37.9,29.76,NNW,346,1.0,1.0,74,0.00,,,0.00,Wunderground v.1.15,2013-05-02 12:01:00,
2013-05-02 05:07:00,45.7,38.2,29.76,NNW,346,0.0,1.0,75,0.00,,,0.00,Wunderground v.1.15,2013-05-02 12:07:00,
2013-05-02 05:13:00,45.5,37.7,29.76,SSW,204,1.0,1.0,74,0.00,,,0.00,Wunderground v.1.15,2013-05-02 12:13:00,
2013-05-02 05:19:00,45.4,37.9,29.76,SSW,198,0.0,2.0,75,0.00,,,0.00,Wunderground v.1.15,2013-05-02 12:19:00,
2013-05-02 05:25:00,45.4,38.3,29.76,WNW,289,1.0,1.0,76,0.00,,,0.00,Wunderground v.1.15,2013-05-02 12:25:00,
2013-05-02 05:31:00,45.1,38.0,29.76,WNW,289,0.0,1.0,76,0.00,,,0.00,Wunderground v.1.15,2013-05-02 12:31:00,
2013-05-02 05:37:00,44.8,38.0,29.76,WNW,289,0.0,0.0,77,0.00,,,0.00,Wunderground v.1.15,2013-05-02 12:37:00,
2013-05-02 05:43:00,44.6,38.2,29.76,SW,230,0.0,0.0,78,0.00,,,0.00,Wunderground v.1.15,2013-05-02 12:43:00,
2013-05-02 05:49:00,44.6,38.2,29.76,South,190,0.0,3.0,78,0.00,,,0.00,Wunderground v.1.15,2013-05-02 12:49:00,
2013-05-02 05:55:00,44.6,37.8,29.76,South,191,0.0,0.0,77,0.00,,,0.00,Wunderground v.1.15,2013-05-02 12:55:00,
2013-05-02 06:01:00,44.6,37.8,29.76,South,191,0.0,0.0,77,0.00,,,0.00,Wunderground v.1.15,2013-05-02 13:01:00,
2013-05-02 06:07:00,44.5,37.7,29.77,South,191,0.0,0.0,77,0.00,,,0.00,Wunderground v.1.15,2013-05-02 13:07:00,
2013-05-02 06:13:00,44.3,37.5,29.77,South,191,0.0,2.0,77,0.00,,,0.00,Wunderground v.1.15,2013-05-02 13:13:00,
2013-05-02 06:19:00,44.2,37.8,29.77,NNW,346,1.0,3.0,78,0.00,,,0.00,Wunderground v.1.15,2013-05-02 13:19:00,
2013-05-02 06:25:00,44.2,37.8,29.77,ENE,71,1.0,1.0,78,0.00,,,0.00,Wunderground v.1.15,2013-05-02 13:25:00,
2013-05-02 06:31:00,44.3,37.9,29.77,NNE,29,0.0,2.0,78,0.00,,,0.00,Wunderground v.1.15,2013-05-02 13:31:00,
2013-05-02 06:37:00,44.3,37.9,29.78,West,272,0.0,1.0,78,0.00,,,0.00,Wunderground v.1.15,2013-05-02 13:37:00,
2013-05-02 06:43:00,44.5,38.1,29.77,WSW,256,1.0,2.0,78,0.00,,,0.00,Wunderground v.1.15,2013-05-02 13:43:00,
2013-05-02 06:49:00,44.8,38.4,29.78,South,183,2.0,2.0,78,0.00,,,0.00,Wunderground v.1.15,2013-05-02 13:49:00,
2013-05-02 06:55:00,45.1,38.0,29.78,NE,43,1.0,3.0,76,0.00,,,0.00,Wunderground v.1.15,2013-05-02 13:55:00,
2013-05-02 07:01:00,45.4,38.3,29.78,SSW,201,1.0,3.0,76,0.00,,,0.00,Wunderground v.1.15,2013-05-02 14:01:00,
2013-05-02 07:07:00,45.7,38.6,29.78,SSW,202,0.0,0.0,76,0.00,,,0.00,Wunderground v.1.15,2013-05-02 14:07:00,
2013-05-02 07:13:00,46.4,39.2,29.78,West,265,0.0,1.0,76,0.00,,,0.00,Wunderground v.1.15,2013-05-02 14:13:00,
2013-05-02 07:19:00,47.3,39.4,29.78,NE,49,1.0,1.0,74,0.00,,,0.00,Wunderground v.1.15,2013-05-02 14:19:00,
2013-05-02 07:25:00,48.3,40.0,29.78,West,272,0.0,1.0,73,0.00,,,0.00,Wunderground v.1.15,2013-05-02 14:25:00,
2013-05-02 07:31:00,49.5,40.8,29.78,West,272,0.0,1.0,72,0.00,,,0.00,Wunderground v.1.15,2013-05-02 14:31:00,
2013-05-02 07:37:00,50.8,41.4,29.78,NW,308,0.0,1.0,70,0.00,,,0.00,Wunderground v.1.15,2013-05-02 14:37:00,
2013-05-02 07:43:00,52.2,41.2,29.78,NW,308,0.0,0.0,66,0.00,,,0.00,Wunderground v.1.15,2013-05-02 14:43:00,
2013-05-02 07:49:00,53.6,40.5,29.78,ESE,115,0.0,2.0,61,0.00,,,0.00,Wunderground v.1.15,2013-05-02 14:49:00,
2013-05-02 07:55:00,55.0,42.6,29.78,ESE,115,0.0,0.0,63,0.00,,,0.00,Wunderground v.1.15,2013-05-02 14:55:00,
2013-05-02 08:01:00,56.3,42.6,29.79,ESE,115,0.0,0.0,60,0.00,,,0.00,Wunderground v.1.15,2013-05-02 15:01:00,
2013-05-02 08:07:00,58.0,42.4,29.78,SSW,212,0.0,0.0,56,0.00,,,0.00,Wunderground v.1.15,2013-05-02 15:07:00,
2013-05-02 08:13:00,59.3,42.2,29.78,SSW,212,0.0,0.0,53,0.00,,,0.00,Wunderground v.1.15,2013-05-02 15:13:00,
2013-05-02 08:19:00,60.5,43.3,29.78,SSW,212,0.0,0.0,53,0.00,,,0.00,Wunderground v.1.15,2013-05-02 15:19:00,
2013-05-02 08:25:00,61.8,42.4,29.78,SSW,212,0.0,0.0,49,0.00,,,0.00,Wunderground v.1.15,2013-05-02 15:25:00,
2013-05-02 08:31:00,62.7,42.2,29.78,SSW,213,0.0,0.0,47,0.00,,,0.00,Wunderground v.1.15,2013-05-02 15:31:00,
2013-05-02 08:37:00,64.2,43.5,29.78,WNW,303,0.0,0.0,47,0.00,,,0.00,Wunderground v.1.15,2013-05-02 15:37:00,
2013-05-02 08:43:00,65.3,43.4,29.78,SSW,207,0.0,0.0,45,0.00,,,0.00,Wunderground v.1.15,2013-05-02 15:43:00,
2013-05-02 08:49:00,66.6,42.8,29.78,SW,236,0.0,2.0,42,0.00,,,0.00,Wunderground v.1.15,2013-05-02 15:49:00,
2013-05-02 08:55:00,67.8,44.5,29.78,WNW,292,0.0,0.0,43,0.00,,,0.00,Wunderground v.1.15,2013-05-02 15:55:00,
2013-05-02 09:01:00,68.6,43.9,29.78,WNW,286,1.0,2.0,41,0.00,,,0.00,Wunderground v.1.15,2013-05-02 16:01:00,
2013-05-02 09:06:00,69.6,46.1,29.78,West,267,0.0,1.0,43,0.00,,,0.00,Wunderground v.1.15,2013-05-02 16:06:00,
2013-05-02 09:13:00,70.6,42.3,29.79,WNW,300,0.0,0.0,36,0.00,,,0.00,Wunderground v.1.15,2013-05-02 16:13:00,
2013-05-02 09:19:00,71.6,41.0,29.79,NW,306,0.0,0.0,33,0.00,,,0.00,Wunderground v.1.15,2013-05-02 16:19:00,
2013-05-02 09:25:00,72.5,41.0,29.78,WNW,293,1.0,4.0,32,0.00,,,0.00,Wunderground v.1.15,2013-05-02 16:25:00,
2013-05-02 09:31:00,73.3,44.0,29.78,WSW,252,1.0,4.0,35,0.00,,,0.00,Wunderground v.1.15,2013-05-02 16:31:00,
2013-05-02 09:37:00,74.4,38.2,29.78,West,259,1.0,1.0,27,0.00,,,0.00,Wunderground v.1.15,2013-05-02 16:37:00,
2013-05-02 09:43:00,74.7,42.0,29.78,WNW,290,1.0,1.0,31,0.00,,,0.00,Wunderground v.1.15,2013-05-02 16:43:00,
2013-05-02 09:49:00,75.4,40.0,29.78,West,272,1.0,1.0,28,0.00,,,0.00,Wunderground v.1.15,2013-05-02 16:49:00,
2013-05-02 09:55:00,75.6,37.3,29.78,WNW,291,1.0,2.0,25,0.00,,,0.00,Wunderground v.1.15,2013-05-02 16:55:00,
2013-05-02 10:01:00,75.8,41.3,29.78,WNW,288,1.0,2.0,29,0.00,,,0.00,Wunderground v.1.15,2013-05-02 17:01:00,
2013-05-02 10:07:00,76.1,40.6,29.78,West,268,2.0,4.0,28,0.00,,,0.00,Wunderground v.1.15,2013-05-02 17:07:00,
2013-05-02 10:13:00,76.1,42.4,29.79,West,276,3.0,3.0,30,0.00,,,0.00,Wunderground v.1.15,2013-05-02 17:13:00,
2013-05-02 10:19:00,76.0,38.6,29.79,WNW,284,3.0,3.0,26,0.00,,,0.00,Wunderground v.1.15,2013-05-02 17:19:00,
2013-05-02 10:25:00,76.3,37.9,29.79,West,277,3.0,4.0,25,0.00,,,0.00,Wunderground v.1.15,2013-05-02 17:25:00,
2013-05-02 10:31:00,76.7,40.2,29.78,West,271,3.0,4.0,27,0.00,,,0.00,Wunderground v.1.15,2013-05-02 17:31:00,
2013-05-02 10:37:00,77.6,41.0,29.78,West,269,1.0,2.0,27,0.00,,,0.00,Wunderground v.1.15,2013-05-02 17:37:00,
2013-05-02 10:43:00,78.8,42.0,29.78,WSW,246,0.0,3.0,27,0.00,,,0.00,Wunderground v.1.15,2013-05-02 17:43:00,
2013-05-02 10:49:00,79.4,41.5,29.78,SW,221,1.0,3.0,26,0.00,,,0.00,Wunderground v.1.15,2013-05-02 17:49:00,
2013-05-02 10:55:00,79.6,39.6,29.79,West,267,1.0,4.0,24,0.00,,,0.00,Wunderground v.1.15,2013-05-02 17:55:00,
2013-05-02 11:01:00,79.9,40.9,29.79,WNW,298,2.0,4.0,25,0.00,,,0.00,Wunderground v.1.15,2013-05-02 18:01:00,
2013-05-02 11:07:00,80.3,39.1,29.79,WNW,294,2.0,4.0,23,0.00,,,0.00,Wunderground v.1.15,2013-05-02 18:07:00,
2013-05-02 11:13:00,80.5,39.3,29.79,WSW,258,2.0,3.0,23,0.00,,,0.00,Wunderground v.1.15,2013-05-02 18:13:00,
2013-05-02 11:19:00,81.2,37.5,29.79,West,271,1.0,3.0,21,0.00,,,0.00,Wunderground v.1.15,2013-05-02 18:19:00,
2013-05-02 11:25:00,82.2,37.1,29.79,WSW,256,1.0,1.0,20,0.00,,,0.00,Wunderground v.1.15,2013-05-02 18:25:00,
2013-05-02 11:31:00,82.8,41.2,29.79,WNW,298,1.0,4.0,23,0.00,,,0.00,Wunderground v.1.15,2013-05-02 18:31:00,
2013-05-02 11:37:00,83.0,39.0,29.79,SW,234,1.0,2.0,21,0.00,,,0.00,Wunderground v.1.15,2013-05-02 18:37:00,
2013-05-02 11:43:00,83.8,34.3,29.79,WSW,248,0.0,0.0,17,0.00,,,0.00,Wunderground v.1.15,2013-05-02 18:43:00,
2013-05-02 11:49:00,84.1,34.6,29.79,WSW,254,0.0,3.0,17,0.00,,,0.00,Wunderground v.1.15,2013-05-02 18:49:00,
2013-05-02 11:55:00,84.3,38.9,29.79,WNW,284,1.0,3.0,20,0.00,,,0.00,Wunderground v.1.15,2013-05-02 18:55:00,
2013-05-02 12:01:00,84.9,38.0,29.79,SSE,157,1.0,3.0,19,0.00,,,0.00,Wunderground v.1.15,2013-05-02 19:01:00,
2013-05-02 12:07:00,86.3,34.8,29.78,SSE,157,0.0,1.0,16,0.00,,,0.00,Wunderground v.1.15,2013-05-02 19:07:00,
2013-05-02 12:12:00,87.2,33.9,29.78,WSW,250,0.0,2.0,15,0.00,,,0.00,Wunderground v.1.15,2013-05-02 19:12:00,
2013-05-02 12:19:00,86.5,36.5,29.78,SW,221,0.0,2.0,17,0.00,,,0.00,Wunderground v.1.15,2013-05-02 19:19:00,
2013-05-02 12:25:00,86.3,34.8,29.78,NW,317,0.0,0.0,16,0.00,,,0.00,Wunderground v.1.15,2013-05-02 19:25:00,
2013-05-02 12:31:00,86.5,33.4,29.77,WNW,294,1.0,4.0,15,0.00,,,0.00,Wunderground v.1.15,2013-05-02 19:31:00,
2013-05-02 12:37:00,86.7,35.1,29.77,South,171,1.0,1.0,16,0.00,,,0.00,Wunderground v.1.15,2013-05-02 19:37:00,
2013-05-02 12:43:00,87.6,34.2,29.77,South,178,0.0,0.0,15,0.00,,,0.00,Wunderground v.1.15,2013-05-02 19:43:00,
2013-05-02 12:49:00,89.0,35.3,29.77,SE,130,0.0,0.0,15,0.00,,,0.00,Wunderground v.1.15,2013-05-02 19:49:00,
2013-05-02 12:55:00,89.0,33.6,29.77,ESE,118,1.0,3.0,14,0.00,,,0.00,Wunderground v.1.15,2013-05-02 19:55:00,
2013-05-02 13:01:00,88.8,31.6,29.77,ESE,121,1.0,4.0,13,0.00,,,0.00,Wunderground v.1.15,2013-05-02 20:01:00,
2013-05-02 13:07:00,89.0,33.6,29.77,South,182,0.0,1.0,14,0.00,,,0.00,Wunderground v.1.15,2013-05-02 20:07:00,
2013-05-02 13:13:00,89.5,32.2,29.77,ESE,109,1.0,1.0,13,0.00,,,0.00,Wunderground v.1.15,2013-05-02 20:13:00,
2013-05-02 13:19:00,89.3,32.0,29.77,ENE,71,1.0,3.0,13,0.00,,,0.00,Wunderground v.1.15,2013-05-02 20:19:00,
2013-05-02 13:25:00,88.8,33.4,29.77,SW,225,1.0,1.0,14,0.00,,,0.00,Wunderground v.1.15,2013-05-02 20:25:00,
2013-05-02 13:31:00,88.8,39.8,29.76,West,267,1.0,3.0,18,0.00,,,0.00,Wunderground v.1.15,2013-05-02 20:31:00,
2013-05-02 13:37:00,88.6,38.2,29.76,West,267,2.0,5.0,17,0.00,,,0.00,Wunderground v.1.15,2013-05-02 20:37:00,
2013-05-02 13:43:00,88.0,43.2,29.76,WNW,300,3.0,4.0,21,0.00,,,0.00,Wunderground v.1.15,2013-05-02 20:43:00,
2013-05-02 13:49:00,88.2,43.3,29.76,WSW,242,2.0,4.0,21,0.00,,,0.00,Wunderground v.1.15,2013-05-02 20:49:00,
2013-05-02 13:55:00,88.8,41.2,29.76,East,91,1.0,2.0,19,0.00,,,0.00,Wunderground v.1.15,2013-05-02 20:55:00,
2013-05-02 14:01:00,88.6,42.4,29.76,WNW,294,2.0,4.0,20,0.00,,,0.00,Wunderground v.1.15,2013-05-02 21:01:00,
2013-05-02 14:07:00,88.2,42.1,29.76,NNE,16,3.0,5.0,20,0.00,,,0.00,Wunderground v.1.15,2013-05-02 21:07:00,
2013-05-02 14:13:00,88.8,39.8,29.76,South,175,2.0,2.0,18,0.00,,,0.00,Wunderground v.1.15,2013-05-02 21:13:00,
2013-05-02 14:19:00,88.2,37.9,29.76,West,261,3.0,3.0,17,0.00,,,0.00,Wunderground v.1.15,2013-05-02 21:19:00,
2013-05-02 14:25:00,88.4,36.5,29.75,SSE,150,2.0,2.0,16,0.00,,,0.00,Wunderground v.1.15,2013-05-02 21:25:00,
2013-05-02 14:31:00,89.0,37.0,29.76,SW,224,1.0,3.0,16,0.00,,,0.00,Wunderground v.1.15,2013-05-02 21:31:00,
2013-05-02 14:37:00,89.0,40.0,29.76,WNW,296,2.0,5.0,18,0.00,,,0.00,Wunderground v.1.15,2013-05-02 21:37:00,
2013-05-02 14:43:00,89.0,38.5,29.75,West,269,3.0,3.0,17,0.00,,,0.00,Wunderground v.1.15,2013-05-02 21:43:00,
2013-05-02 14:49:00,90.1,39.4,29.75,WSW,249,1.0,3.0,17,0.00,,,0.00,Wunderground v.1.15,2013-05-02 21:49:00,
2013-05-02 14:55:00,89.9,40.7,29.75,WNW,284,2.0,7.0,18,0.00,,,0.00,Wunderground v.1.15,2013-05-02 21:55:00,
2013-05-02 15:01:00,89.9,39.2,29.75,West,275,1.0,7.0,17,0.00,,,0.00,Wunderground v.1.15,2013-05-02 22:01:00,
2013-05-02 15:07:00,89.9,39.2,29.75,South,177,1.0,1.0,17,0.00,,,0.00,Wunderground v.1.15,2013-05-02 22:07:00,
2013-05-02 15:13:00,89.9,36.1,29.75,WSW,250,1.0,2.0,15,0.00,,,0.00,Wunderground v.1.15,2013-05-02 22:13:00,
2013-05-02 15:19:00,89.0,37.0,29.75,West,271,2.0,13.0,16,0.00,,,0.00,Wunderground v.1.15,2013-05-02 22:19:00,
2013-05-02 15:25:00,88.8,39.8,29.74,West,259,3.0,3.0,18,0.00,,,0.00,Wunderground v.1.15,2013-05-02 22:25:00,
2013-05-02 15:31:00,88.8,38.4,29.74,WSW,247,3.0,6.0,17,0.00,,,0.00,Wunderground v.1.15,2013-05-02 22:31:00,
2013-05-02 15:37:00,89.0,38.5,29.74,WSW,239,3.0,3.0,17,0.00,,,0.00,Wunderground v.1.15,2013-05-02 22:37:00,
2013-05-02 15:43:00,90.1,37.9,29.74,North,11,1.0,1.0,16,0.00,,,0.00,Wunderground v.1.15,2013-05-02 22:43:00,
2013-05-02 15:49:00,90.3,36.4,29.74,SW,233,1.0,1.0,15,0.00,,,0.00,Wunderground v.1.15,2013-05-02 22:49:00,
2013-05-02 15:55:00,89.9,37.7,29.74,SSW,202,2.0,2.0,16,0.00,,,0.00,Wunderground v.1.15,2013-05-02 22:55:00,
2013-05-02 16:01:00,89.9,36.1,29.74,West,274,3.0,4.0,15,0.00,,,0.00,Wunderground v.1.15,2013-05-02 23:01:00,
2013-05-02 16:07:00,89.7,37.5,29.74,SSW,202,3.0,3.0,16,0.00,,,0.00,Wunderground v.1.15,2013-05-02 23:07:00,
2013-05-02 16:13:00,89.9,42.1,29.73,NW,318,2.0,6.0,19,0.00,,,0.00,Wunderground v.1.15,2013-05-02 23:13:00,
2013-05-02 16:19:00,89.7,35.9,29.73,WNW,298,2.0,6.0,15,0.00,,,0.00,Wunderground v.1.15,2013-05-02 23:19:00,
2013-05-02 16:25:00,89.7,35.9,29.73,WNW,288,2.0,4.0,15,0.00,,,0.00,Wunderground v.1.15,2013-05-02 23:25:00,
2013-05-02 16:31:00,89.3,35.6,29.73,WNW,292,3.0,6.0,15,0.00,,,0.00,Wunderground v.1.15,2013-05-02 23:31:00,
2013-05-02 16:37:00,88.8,38.4,29.73,SW,226,4.0,6.0,17,0.00,,,0.00,Wunderground v.1.15,2013-05-02 23:37:00,
2013-05-02 16:43:00,88.8,41.2,29.73,WSW,238,3.0,3.0,19,0.00,,,0.00,Wunderground v.1.15,2013-05-02 23:43:00,
2013-05-02 16:49:00,88.6,41.1,29.73,SSW,200,2.0,7.0,19,0.00,,,0.00,Wunderground v.1.15,2013-05-02 23:49:00,
2013-05-02 16:55:00,88.8,41.2,29.73,West,267,3.0,3.0,19,0.00,,,0.00,Wunderground v.1.15,2013-05-02 23:55:00,
2013-05-02 17:01:00,88.4,38.0,29.73,SW,227,3.0,4.0,17,0.00,,,0.00,Wunderground v.1.15,2013-05-03 00:01:00,
2013-05-02 17:07:00,88.0,37.7,29.73,WSW,257,2.0,9.0,17,0.00,,,0.00,Wunderground v.1.15,2013-05-03 00:07:00,
2013-05-02 17:13:00,87.2,35.5,29.73,WNW,302,3.0,3.0,16,0.00,,,0.00,Wunderground v.1.15,2013-05-03 00:13:00,
2013-05-02 17:19:00,87.4,37.2,29.73,SE,144,2.0,3.0,17,0.00,,,0.00,Wunderground v.1.15,2013-05-03 00:19:00,
2013-05-02 17:25:00,86.5,33.4,29.73,WSW,257,3.0,4.0,15,0.00,,,0.00,Wunderground v.1.15,2013-05-03 00:25:00,
2013-05-02 17:31:00,86.5,35.0,29.73,WSW,246,2.0,4.0,16,0.00,,,0.00,Wunderground v.1.15,2013-05-03 00:31:00,
2013-05-02 17:37:00,86.1,33.0,29.73,SW,215,2.0,10.0,15,0.00,,,0.00,Wunderground v.1.15,2013-05-03 00:37:00,
2013-05-02 17:43:00,85.3,34.0,29.73,WNW,285,4.0,5.0,16,0.00,,,0.00,Wunderground v.1.15,2013-05-03 00:43:00,
2013-05-02 17:49:00,84.7,33.5,29.73,SSW,211,4.0,6.0,16,0.00,,,0.00,Wunderground v.1.15,2013-05-03 00:49:00,
2013-05-02 17:55:00,84.5,31.8,29.73,NW,323,4.0,4.0,15,0.00,,,0.00,Wunderground v.1.15,2013-05-03 00:55:00,
2013-05-02 18:01:00,84.7,31.9,29.73,West,280,2.0,4.0,15,0.00,,,0.00,Wunderground v.1.15,2013-05-03 01:01:00,
2013-05-02 18:07:00,84.5,33.4,29.73,West,265,3.0,4.0,16,0.00,,,0.00,Wunderground v.1.15,2013-05-03 01:07:00,
2013-05-02 18:13:00,84.3,34.7,29.73,WNW,294,3.0,3.0,17,0.00,,,0.00,Wunderground v.1.15,2013-05-03 01:13:00,
2013-05-02 18:19:00,84.7,35.0,29.73,WSW,246,2.0,3.0,17,0.00,,,0.00,Wunderground v.1.15,2013-05-03 01:19:00,
2013-05-02 18:25:00,84.9,35.2,29.73,SW,236,1.0,1.0,17,0.00,,,0.00,Wunderground v.1.15,2013-05-03 01:25:00,
2013-05-02 18:31:00,84.3,34.7,29.73,SW,224,2.0,4.0,17,0.00,,,0.00,Wunderground v.1.15,2013-05-03 01:31:00,
2013-05-02 18:37:00,84.0,34.5,29.73,WNW,290,1.0,1.0,17,0.00,,,0.00,Wunderground v.1.15,2013-05-03 01:37:00,
2013-05-02 18:43:00,83.6,35.6,29.73,WNW,286,0.0,0.0,18,0.00,,,0.00,Wunderground v.1.15,2013-05-03 01:43:00,
2013-05-02 18:49:00,83.0,33.7,29.72,WNW,285,1.0,3.0,17,0.00,,,0.00,Wunderground v.1.15,2013-05-03 01:49:00,
2013-05-02 18:55:00,82.6,36.1,29.72,South,169,0.0,0.0,19,0.00,,,0.00,Wunderground v.1.15,2013-05-03 01:55:00,
2013-05-02 19:01:00,82.2,34.5,29.72,SSW,205,0.0,2.0,18,0.00,,,0.00,Wunderground v.1.15,2013-05-03 02:01:00,
2013-05-02 19:07:00,82.0,32.9,29.72,SSW,208,0.0,0.0,17,0.00,,,0.00,Wunderground v.1.15,2013-05-03 02:07:00,
2013-05-02 19:13:00,81.8,32.7,29.72,SSW,208,0.0,0.0,17,0.00,,,0.00,Wunderground v.1.15,2013-05-03 02:13:00,
2013-05-02 19:19:00,81.1,32.1,29.72,WSW,250,0.0,3.0,17,0.00,,,0.00,Wunderground v.1.15,2013-05-03 02:19:00,
2013-05-02 19:25:00,80.1,36.6,29.72,WSW,250,0.0,0.0,21,0.00,,,0.00,Wunderground v.1.15,2013-05-03 02:25:00,
2013-05-02 19:31:00,78.8,36.7,29.72,WSW,250,0.0,0.0,22,0.00,,,0.00,Wunderground v.1.15,2013-05-03 02:31:00,
2013-05-02 19:37:00,77.9,37.1,29.72,WSW,250,0.0,0.0,23,0.00,,,0.00,Wunderground v.1.15,2013-05-03 02:37:00,
2013-05-02 19:43:00,76.8,38.3,29.72,WSW,250,0.0,0.0,25,0.00,,,0.00,Wunderground v.1.15,2013-05-03 02:43:00,
2013-05-02 19:49:00,76.1,39.7,29.72,WSW,250,0.0,0.0,27,0.00,,,0.00,Wunderground v.1.15,2013-05-03 02:49:00,
2013-05-02 19:55:00,75.1,39.8,29.72,WSW,250,0.0,0.0,28,0.00,,,0.00,Wunderground v.1.15,2013-05-03 02:55:00,
2013-05-02 20:01:00,73.7,42.8,29.72,WSW,250,0.0,0.0,33,0.00,,,0.00,Wunderground v.1.15,2013-05-03 03:01:00,
2013-05-02 20:06:00,71.6,41.0,29.72,WSW,250,0.0,2.0,33,0.00,,,0.00,Wunderground v.1.15,2013-05-03 03:06:00,
2013-05-02 20:08:00,62.7,42.2,29.73,WSW,250,0.0,0.0,47,0.00,,,0.00,Wunderground v.1.15,2013-05-03 03:08:00,
2013-05-02 20:10:00,62.6,43.7,29.73,WSW,250,0.0,0.0,50,0.00,,,0.00,Wunderground v.1.15,2013-05-03 03:10:00,
2013-05-02 20:12:00,62.4,43.0,29.73,WSW,250,0.0,0.0,49,0.00,,,0.00,Wunderground v.1.15,2013-05-03 03:12:00,
2013-05-02 20:13:00,70.1,41.9,29.73,WSW,250,0.0,0.0,36,0.00,,,0.00,Wunderground v.1.15,2013-05-03 03:13:00,
2013-05-02 20:14:00,62.1,43.2,29.73,WSW,250,0.0,0.0,50,0.00,,,0.00,Wunderground v.1.15,2013-05-03 03:14:00,
2013-05-02 20:16:00,61.8,43.5,29.73,WSW,250,0.0,0.0,51,0.00,,,0.00,Wunderground v.1.15,2013-05-03 03:16:00,
2013-05-02 20:18:00,61.5,42.2,29.73,WSW,250,0.0,0.0,49,0.00,,,0.00,Wunderground v.1.15,2013-05-03 03:18:00,
2013-05-02 20:19:00,69.1,42.4,29.73,WSW,250,0.0,0.0,38,0.00,,,0.00,Wunderground v.1.15,2013-05-03 03:19:00,
2013-05-02 20:20:00,61.2,42.4,29.73,WSW,250,0.0,0.0,50,0.00,,,0.00,Wunderground v.1.15,2013-05-03 03:20:00,
2013-05-02 20:22:00,60.9,42.6,29.73,WSW,250,0.0,0.0,51,0.00,,,0.00,Wunderground v.1.15,2013-05-03 03:22:00,
2013-05-02 20:24:00,60.7,41.4,29.73,WSW,250,0.0,0.0,49,0.00,,,0.00,Wunderground v.1.15,2013-05-03 03:24:00,
2013-05-02 20:25:00,67.8,43.2,29.73,WSW,250,0.0,0.0,41,0.00,,,0.00,Wunderground v.1.15,2013-05-03 03:25:00,
2013-05-02 20:26:00,60.5,42.8,29.73,WSW,250,0.0,0.0,52,0.00,,,0.00,Wunderground v.1.15,2013-05-03 03:26:00,
2013-05-02 20:28:00,60.4,42.2,29.73,WSW,250,0.0,0.0,51,0.00,,,0.00,Wunderground v.1.15,2013-05-03 03:28:00,
2013-05-02 20:30:00,60.2,43.0,29.73,WSW,250,0.0,0.0,53,0.00,,,0.00,Wunderground v.1.15,2013-05-03 03:30:00,
2013-05-02 20:31:00,66.6,42.2,29.73,WSW,250,0.0,0.0,41,0.00,,,0.00,Wunderground v.1.15,2013-05-03 03:31:00,
2013-05-02 20:32:00,60.1,42.4,29.73,WSW,250,0.0,0.0,52,0.00,,,0.00,Wunderground v.1.15,2013-05-03 03:32:00,
2013-05-02 20:34:00,59.9,42.2,29.73,WSW,250,0.0,0.0,52,0.00,,,0.00,Wunderground v.1.15,2013-05-03 03:34:00,
2013-05-02 20:36:00,59.8,41.6,29.73,WSW,250,0.0,0.0,51,0.00,,,0.00,Wunderground v.1.15,2013-05-03 03:36:00,
2013-05-02 20:37:00,65.5,42.4,29.73,WSW,250,0.0,0.0,43,0.00,,,0.00,Wunderground v.1.15,2013-05-03 03:37:00,
2013-05-02 20:38:00,59.5,42.8,29.73,WSW,250,0.0,0.0,54,0.00,,,0.00,Wunderground v.1.15,2013-05-03 03:38:00,
2013-05-02 20:40:00,59.3,42.2,29.74,WSW,250,0.0,0.0,53,0.00,,,0.00,Wunderground v.1.15,2013-05-03 03:40:00,
2013-05-02 20:42:00,59.2,42.6,29.74,WSW,250,0.0,0.0,54,0.00,,,0.00,Wunderground v.1.15,2013-05-03 03:42:00,
2013-05-02 20:43:00,64.7,43.4,29.73,WSW,250,0.0,0.0,46,0.00,,,0.00,Wunderground v.1.15,2013-05-03 03:43:00,
2013-05-02 20:44:00,59.0,42.8,29.74,WSW,250,0.0,0.0,55,0.00,,,0.00,Wunderground v.1.15,2013-05-03 03:44:00,
2013-05-02 20:46:00,58.9,41.8,29.74,WSW,250,0.0,0.0,53,0.00,,,0.00,Wunderground v.1.15,2013-05-03 03:46:00,
2013-05-02 20:48:00,58.7,41.6,29.74,WSW,250,0.0,0.0,53,0.00,,,0.00,Wunderground v.1.15,2013-05-03 03:48:00,
2013-05-02 20:49:00,63.9,41.0,29.73,WSW,250,0.0,0.0,43,0.00,,,0.00,Wunderground v.1.15,2013-05-03 03:49:00,
2013-05-02 20:50:00,58.6,42.5,29.74,WSW,250,0.0,0.0,55,0.00,,,0.00,Wunderground v.1.15,2013-05-03 03:50:00,
2013-05-02 20:52:00,58.4,41.3,29.74,WSW,250,0.0,0.0,53,0.00,,,0.00,Wunderground v.1.15,2013-05-03 03:52:00,
2013-05-02 20:54:00,58.3,41.2,29.74,WSW,250,0.0,0.0,53,0.00,,,0.00,Wunderground v.1.15,2013-05-03 03:54:00,
2013-05-02 20:55:00,63.2,41.5,29.73,WSW,250,0.0,0.0,45,0.00,,,0.00,Wunderground v.1.15,2013-05-03 03:55:00,
2013-05-02 20:56:00,58.1,42.0,29.74,WSW,250,0.0,0.0,55,0.00,,,0.00,Wunderground v.1.15,2013-05-03 03:56:00,
2013-05-02 20:58:00,58.0,42.4,29.74,WSW,250,0.0,0.0,56,0.00,,,0.00,Wunderground v.1.15,2013-05-03 03:58:00,
2013-05-02 21:00:00,58.0,42.4,29.74,WSW,250,0.0,0.0,56,0.00,,,0.00,Wunderground v.1.15,2013-05-03 04:00:00,
2013-05-02 21:02:00,57.8,43.1,29.74,WSW,250,0.0,0.0,58,0.00,,,0.00,Wunderground v.1.15,2013-05-03 04:02:00,
2013-05-02 21:04:00,57.6,42.0,29.74,WSW,250,0.0,0.0,56,0.00,,,0.00,Wunderground v.1.15,2013-05-03 04:04:00,
2013-05-02 21:06:00,57.6,42.0,29.74,WSW,250,0.0,0.0,56,0.00,,,0.00,Wunderground v.1.15,2013-05-03 04:06:00,
2013-05-02 21:08:00,57.5,42.4,29.74,WSW,250,0.0,0.0,57,0.00,,,0.00,Wunderground v.1.15,2013-05-03 04:08:00,
2013-05-02 21:10:00,57.3,42.6,29.74,WSW,250,0.0,0.0,58,0.00,,,0.00,Wunderground v.1.15,2013-05-03 04:10:00,
2013-05-02 21:12:00,57.2,42.1,29.74,WSW,250,0.0,0.0,57,0.00,,,0.00,Wunderground v.1.15,2013-05-03 04:12:00,
2013-05-02 21:14:00,57.0,41.0,29.74,WSW,250,0.0,0.0,55,0.00,,,0.00,Wunderground v.1.15,2013-05-03 04:14:00,
2013-05-02 21:16:00,56.9,41.8,29.74,WSW,250,0.0,0.0,57,0.00,,,0.00,Wunderground v.1.15,2013-05-03 04:16:00,
2013-05-02 21:18:00,56.7,41.2,29.74,WSW,250,0.0,0.0,56,0.00,,,0.00,Wunderground v.1.15,2013-05-03 04:18:00,
2013-05-02 21:20:00,56.6,41.1,29.74,WSW,250,0.0,0.0,56,0.00,,,0.00,Wunderground v.1.15,2013-05-03 04:20:00,
2013-05-02 21:22:00,56.5,41.9,29.74,WSW,250,0.0,0.0,58,0.00,,,0.00,Wunderground v.1.15,2013-05-03 04:22:00,
2013-05-02 21:24:00,56.3,41.7,29.74,WSW,250,0.0,0.0,58,0.00,,,0.00,Wunderground v.1.15,2013-05-03 04:24:00,
2013-05-02 21:26:00,56.2,41.2,29.73,WSW,250,0.0,0.0,57,0.00,,,0.00,Wunderground v.1.15,2013-05-03 04:26:00,
2013-05-02 21:28:00,56.0,41.4,29.74,WSW,250,0.0,0.0,58,0.00,,,0.00,Wunderground v.1.15,2013-05-03 04:28:00,
2013-05-02 21:30:00,56.0,41.9,29.74,WSW,250,0.0,0.0,59,0.00,,,0.00,Wunderground v.1.15,2013-05-03 04:30:00,
2013-05-02 21:32:00,55.9,41.8,29.74,WSW,250,0.0,0.0,59,0.00,,,0.00,Wunderground v.1.15,2013-05-03 04:32:00,
2013-05-02 21:34:00,55.7,40.7,29.74,WSW,250,0.0,0.0,57,0.00,,,0.00,Wunderground v.1.15,2013-05-03 04:34:00,
2013-05-02 21:36:00,55.7,41.6,29.74,WSW,250,0.0,0.0,59,0.00,,,0.00,Wunderground v.1.15,2013-05-03 04:36:00,
2013-05-02 21:38:00,55.6,41.5,29.74,WSW,250,0.0,0.0,59,0.00,,,0.00,Wunderground v.1.15,2013-05-03 04:38:00,
2013-05-02 21:40:00,55.4,40.9,29.74,WSW,250,0.0,0.0,58,0.00,,,0.00,Wunderground v.1.15,2013-05-03 04:40:00,
2013-05-02 21:42:00,55.3,41.6,29.74,WSW,250,0.0,0.0,60,0.00,,,0.00,Wunderground v.1.15,2013-05-03 04:42:00,
2013-05-02 21:44:00,55.3,40.8,29.74,WSW,250,0.0,0.0,58,0.00,,,0.00,Wunderground v.1.15,2013-05-03 04:44:00,
2013-05-02 21:46:00,55.1,40.6,29.74,WSW,250,0.0,0.0,58,0.00,,,0.00,Wunderground v.1.15,2013-05-03 04:46:00,
2013-05-02 21:48:00,55.1,41.0,29.74,WSW,250,0.0,0.0,59,0.00,,,0.00,Wunderground v.1.15,2013-05-03 04:48:00,
2013-05-02 21:50:00,55.0,41.4,29.74,WSW,250,0.0,0.0,60,0.00,,,0.00,Wunderground v.1.15,2013-05-03 04:50:00,
2013-05-02 21:52:00,54.8,40.7,29.74,WSW,250,0.0,0.0,59,0.00,,,0.00,Wunderground v.1.15,2013-05-03 04:52:00,
2013-05-02 21:54:00,54.8,40.3,29.74,WSW,250,0.0,0.0,58,0.00,,,0.00,Wunderground v.1.15,2013-05-03 04:54:00,
2013-05-02 21:56:00,54.7,40.2,29.74,WSW,250,0.0,0.0,58,0.00,,,0.00,Wunderground v.1.15,2013-05-03 04:56:00,
2013-05-02 21:58:00,54.7,40.6,29.73,WSW,250,0.0,0.0,59,0.00,,,0.00,Wunderground v.1.15,2013-05-03 04:58:00,
2013-05-02 22:00:00,54.7,40.6,29.74,WSW,250,0.0,0.0,59,0.00,,,0.00,Wunderground v.1.15,2013-05-03 05:00:00,
2013-05-02 22:02:00,54.5,40.5,29.74,WSW,250,0.0,0.0,59,0.00,,,0.00,Wunderground v.1.15,2013-05-03 05:02:00,
2013-05-02 22:04:00,54.5,40.5,29.73,WSW,250,0.0,0.0,59,0.00,,,0.00,Wunderground v.1.15,2013-05-03 05:04:00,
2013-05-02 22:06:00,54.4,40.8,29.74,WSW,250,0.0,0.0,60,0.00,,,0.00,Wunderground v.1.15,2013-05-03 05:06:00,
2013-05-02 22:08:00,54.4,40.8,29.73,WSW,250,0.0,0.0,60,0.00,,,0.00,Wunderground v.1.15,2013-05-03 05:08:00,
2013-05-02 22:10:00,54.2,41.0,29.73,WSW,250,0.0,0.0,61,0.00,,,0.00,Wunderground v.1.15,2013-05-03 05:10:00,
2013-05-02 22:12:00,54.1,41.4,29.73,WSW,250,0.0,0.0,62,0.00,,,0.00,Wunderground v.1.15,2013-05-03 05:12:00,
2013-05-02 22:14:00,53.9,41.6,29.73,WSW,250,0.0,0.0,63,0.00,,,0.00,Wunderground v.1.15,2013-05-03 05:14:00,
2013-05-02 22:16:00,53.8,41.1,29.73,WSW,250,0.0,0.0,62,0.00,,,0.00,Wunderground v.1.15,2013-05-03 05:16:00,
2013-05-02 22:18:00,53.8,41.9,29.73,WSW,250,0.0,0.0,64,0.00,,,0.00,Wunderground v.1.15,2013-05-03 05:18:00,
2013-05-02 22:20:00,53.6,41.3,29.73,WSW,250,0.0,0.0,63,0.00,,,0.00,Wunderground v.1.15,2013-05-03 05:20:00,
2013-05-02 22:22:00,53.5,41.6,29.73,WSW,250,0.0,0.0,64,0.00,,,0.00,Wunderground v.1.15,2013-05-03 05:22:00,
2013-05-02 22:24:00,53.3,41.4,29.73,WSW,250,0.0,0.0,64,0.00,,,0.00,Wunderground v.1.15,2013-05-03 05:24:00,
2013-05-02 22:26:00,53.3,41.4,29.73,WSW,250,0.0,0.0,64,0.00,,,0.00,Wunderground v.1.15,2013-05-03 05:26:00,
2013-05-02 22:28:00,53.2,41.3,29.73,WSW,250,0.0,0.0,64,0.00,,,0.00,Wunderground v.1.15,2013-05-03 05:28:00,
2013-05-02 22:30:00,53.1,41.2,29.73,WSW,250,0.0,0.0,64,0.00,,,0.00,Wunderground v.1.15,2013-05-03 05:30:00,
2013-05-02 22:32:00,52.9,40.6,29.73,WSW,250,0.0,0.0,63,0.00,,,0.00,Wunderground v.1.15,2013-05-03 05:32:00,
2013-05-02 22:34:00,52.9,41.0,29.73,WSW,250,0.0,0.0,64,0.00,,,0.00,Wunderground v.1.15,2013-05-03 05:34:00,
2013-05-02 22:36:00,52.8,41.0,29.73,WSW,250,0.0,0.0,64,0.00,,,0.00,Wunderground v.1.15,2013-05-03 05:36:00,
2013-05-02 22:38:00,52.6,40.8,29.73,WSW,250,0.0,0.0,64,0.00,,,0.00,Wunderground v.1.15,2013-05-03 05:38:00,
2013-05-02 22:40:00,52.5,41.1,29.73,WSW,250,0.0,0.0,65,0.00,,,0.00,Wunderground v.1.15,2013-05-03 05:40:00,
2013-05-02 22:42:00,52.3,40.5,29.73,WSW,250,0.0,0.0,64,0.00,,,0.00,Wunderground v.1.15,2013-05-03 05:42:00,
2013-05-02 22:44:00,52.2,40.4,29.73,WSW,250,0.0,0.0,64,0.00,,,0.00,Wunderground v.1.15,2013-05-03 05:44:00,
2013-05-02 22:46:00,52.2,40.4,29.73,WSW,250,0.0,0.0,64,0.00,,,0.00,Wunderground v.1.15,2013-05-03 05:46:00,
2013-05-02 22:48:00,52.0,40.2,29.73,WSW,250,0.0,0.0,64,0.00,,,0.00,Wunderground v.1.15,2013-05-03 05:48:00,
2013-05-02 22:50:00,52.0,40.2,29.73,WSW,250,0.0,0.0,64,0.00,,,0.00,Wunderground v.1.15,2013-05-03 05:50:00,
2013-05-02 22:52:00,51.9,40.5,29.73,WSW,250,0.0,0.0,65,0.00,,,0.00,Wunderground v.1.15,2013-05-03 05:52:00,
2013-05-02 22:54:00,51.7,40.7,29.73,WSW,250,0.0,0.0,66,0.00,,,0.00,Wunderground v.1.15,2013-05-03 05:54:00,
2013-05-02 22:56:00,51.7,40.7,29.73,WSW,250,0.0,0.0,66,0.00,,,0.00,Wunderground v.1.15,2013-05-03 05:56:00,
2013-05-02 23:00:00,51.6,40.6,29.73,WSW,250,0.0,0.0,66,0.00,,,0.00,Wunderground v.1.15,2013-05-03 06:00:00,
2013-05-02 23:02:00,51.6,40.6,29.73,WSW,250,0.0,0.0,66,0.00,,,0.00,Wunderground v.1.15,2013-05-03 06:02:00,
2013-05-02 23:04:00,51.4,40.0,29.73,WSW,250,0.0,0.0,65,0.00,,,0.00,Wunderground v.1.15,2013-05-03 06:04:00,
2013-05-02 23:08:00,51.4,40.8,29.72,WSW,250,0.0,0.0,67,0.00,,,0.00,Wunderground v.1.15,2013-05-03 06:08:00,
2013-05-02 23:10:00,51.4,40.8,29.73,WSW,250,0.0,0.0,67,0.00,,,0.00,Wunderground v.1.15,2013-05-03 06:10:00,
2013-05-02 23:14:00,51.3,40.3,29.72,WSW,250,0.0,0.0,66,0.00,,,0.00,Wunderground v.1.15,2013-05-03 06:14:00,
2013-05-02 23:18:00,51.3,40.3,29.72,WSW,250,0.0,0.0,66,0.00,,,0.00,Wunderground v.1.15,2013-05-03 06:18:00,
2013-05-02 23:20:00,51.1,40.5,29.72,WSW,250,0.0,0.0,67,0.00,,,0.00,Wunderground v.1.15,2013-05-03 06:20:00,
2013-05-02 23:22:00,51.1,40.5,29.72,WSW,250,0.0,0.0,67,0.00,,,0.00,Wunderground v.1.15,2013-05-03 06:22:00,
2013-05-02 23:26:00,51.0,40.8,29.72,WSW,250,0.0,0.0,68,0.00,,,0.00,Wunderground v.1.15,2013-05-03 06:26:00,
2013-05-02 23:28:00,50.8,40.6,29.72,WSW,250,0.0,0.0,68,0.00,,,0.00,Wunderground v.1.15,2013-05-03 06:28:00,
2013-05-02 23:32:00,50.7,40.9,29.72,WSW,250,0.0,0.0,69,0.00,,,0.00,Wunderground v.1.15,2013-05-03 06:32:00,
2013-05-02 23:38:00,50.4,40.2,29.72,WSW,250,0.0,0.0,68,0.00,,,0.00,Wunderground v.1.15,2013-05-03 06:38:00,
2013-05-02 23:42:00,50.2,40.4,29.72,WSW,250,0.0,0.0,69,0.00,,,0.00,Wunderground v.1.15,2013-05-03 06:42:00,
2013-05-02 23:44:00,50.1,40.3,29.72,WSW,250,0.0,0.0,69,0.00,,,0.00,Wunderground v.1.15,2013-05-03 06:44:00,
2013-05-02 23:48:00,50.1,40.3,29.72,WSW,250,0.0,0.0,69,0.00,,,0.00,Wunderground v.1.15,2013-05-03 06:48:00,
2013-05-02 23:51:00,51.7,40.3,29.73,WSW,250,0.0,0.0,65,0.00,,,0.00,Wunderground v.1.15,2013-05-03 06:51:00,
2013-05-02 23:54:00,50.1,41.1,29.72,WSW,250,0.0,0.0,71,0.00,,,0.00,Wunderground v.1.15,2013-05-03 06:54:00,
2013-05-02 23:59:00,51.4,40.4,29.73,WSW,250,0.0,0.0,66,0.00,,,0.00,Wunderground v.1.15,2013-05-03 06:59:00,